Weather History for KDMH - May, 2013

Change the Weather History Date:

Wednesday, May 29, 2013

  Actual Average Record
Temperature  
Mean Temperature 82 °F 70 °F  
Max Temperature 94 °F 79 °F 97 °F (2012)
Min Temperature 69 °F 61 °F 55 °F (2003)
Degree Days  
Heating Degree Days 0 1  
Month to date heating degree days 54 79  
Since 1 July heating degree days 3387 4024  
Cooling Degree Days 17 6  
Month to date cooling degree days 138 101  
Year to date cooling degree days 189 126  
Growing Degree Days 31 (Base 50)    
Moisture  
Dew Point 66 °F    
Average Humidity 63    
Maximum Humidity 90    
Minimum Humidity 36    
Precipitation  
Precipitation 0.00 in 0.12 in 0.27 in (2012)
Month to date precipitation 3.83 3.24  
Year to date precipitation 14.16 15.84  
Sea Level Pressure  
Sea Level Pressure 30.09 in    
Wind  
Wind Speed - (North)    
Max Wind Speed -    
Max Gust Speed -    
T = Trace of Precipitation, MM = Missing Value Source: NWS Daily Summary

Daily Weather History Graph

Daily Weather History Graph

Search for Another Location

Airport or City:

Trip Planner

Search our weather history database for the weather conditions in past years. The results will help you decide how hot, cold, wet, or windy it might be!

Date:

Astronomy

May. 29, 2013 Rise Set
Actual Time 5:43 AM EDT 8:25 PM EDT
Civil Twilight 5:11 AM EDT 8:56 PM EDT
Nautical Twilight 4:32 AM EDT 9:36 PM EDT
Astronomical Twilight 3:47 AM EDT 10:20 PM EDT
Moon No Moon Rise 10:38 AM EDT (5/29)
Length of Visible Light 15h 44m
Length of Day
14h 42m
Waning Gibbous, 73% of the Moon is Illuminated
May 29
Waning Gibbous
May 31
Last Quarter
Jun 8
New
Jun 16
First Quarter
Jun 23
Full

Hourly Weather History & Observations

Time (EDT) Temp. Heat Index Dew Point Humidity Pressure Visibility Wind Dir Wind Speed Gust Speed Precip Events Conditions
12:54 AM 70.0 °F - 66.0 °F 87% 30.10 in - North - - N/A   Unknown
1:54 AM 70.0 °F - 66.0 °F 87% 30.09 in - North - - N/A   Unknown
2:54 AM 69.1 °F - 66.0 °F 90% 30.08 in - North - - N/A   Unknown
3:54 AM 69.1 °F - 64.9 °F 87% 30.07 in - North - - N/A   Unknown
4:54 AM 69.1 °F - 64.9 °F 87% 30.08 in - North - - N/A   Unknown
5:54 AM 69.1 °F - 64.9 °F 87% 30.08 in - North - - N/A   Unknown
6:54 AM 71.1 °F - 66.0 °F 84% 30.09 in - North - - N/A   Unknown
7:54 AM 73.9 °F - 66.9 °F 79% 30.11 in - North - - N/A   Unknown
8:54 AM 78.1 °F - 66.9 °F 68% 30.15 in - North - - N/A   Unknown
9:54 AM 80.1 °F 82.3 °F 66.9 °F 64% 30.13 in - North - - N/A   Unknown
10:54 AM 84.9 °F 88.2 °F 68.0 °F 57% 30.14 in - North - - N/A   Unknown
11:54 AM 86.0 °F 88.2 °F 66.0 °F 51% 30.14 in - North - - N/A   Unknown
12:54 PM 91.0 °F 93.0 °F 64.9 °F 42% 30.12 in - North - - N/A   Unknown
1:54 PM 91.9 °F 92.5 °F 62.1 °F 37% 30.10 in - North - - N/A   Unknown
2:54 PM 93.0 °F 94.2 °F 63.0 °F 37% 30.10 in - North - - N/A   Unknown
3:54 PM 93.9 °F 95.6 °F 64.0 °F 37% 30.09 in - North - - N/A   Unknown
4:54 PM 93.9 °F 95.2 °F 63.0 °F 36% 30.07 in - North - - N/A   Unknown
5:54 PM 89.1 °F 92.1 °F 66.9 °F 48% 30.05 in - North - - N/A   Unknown
6:54 PM 88.0 °F 90.7 °F 66.9 °F 49% 30.06 in - North - - N/A   Unknown
7:54 PM 86.0 °F 88.8 °F 66.9 °F 53% 30.05 in - North - - N/A   Unknown
8:54 PM 84.9 °F 87.6 °F 66.9 °F 55% 30.05 in - North - - N/A   Unknown
9:54 PM 82.9 °F 85.4 °F 66.9 °F 58% 30.07 in - North - - N/A   Unknown
10:54 PM 82.9 °F 84.6 °F 64.9 °F 54% 30.09 in - North - - N/A   Unknown
11:54 PM 82.0 °F 83.8 °F 64.9 °F 56% 30.09 in - North - - N/A   Unknown